Reflectivity
-20 -20 -20 -20 -20 -20 -20 -20 -20 -20 -20 -20 -20 -20 -20 -20 -20 -20 -20 -20 -20 -20 -20 -20 -20 -20 -20 -20 -20 -20 -20 -20 -20 -20 -20 -20 -20 -20 -20 -20 -20 -20 -20 -20
-20 -20 -20 -20 -20 -20 -20 -20 -20 -20 -20 -20 -20 -20 -20 -20 -20 -20 -20 -20 -20 -20 -20 -20 -20 -20 -20 -20 -20 -20 -20 -20 -20 -20 -20 -20 -20 -20 -20 -20 -20 -20 -20 -20
-20 -20 -20 -20 -20 -20 -20 -20 -20 -20 -20 -20 -20 -20 -20 -20 -20 -20 -20 -20 -20 -20 -20 -20 -20 -20 -20 -20 -20 -20 -20 -20 -20 -20 -20 -20 -20 -20 -20 -20 -20 -20 -20 -20
-20 -20 -20 -20 -20 -20 -20 -20 -20 -20 -20 -20 -20 -20 -20 -20 -20 -20 -20 -20 -20 -20 -20 -20 -20 -20 -20 -20 -20 -20 -20 -20 -20 -20 -20 -20 -20 -20 -20 -20 -20 -20 -20 -20
-20 -20 -20 -20 -20 -20 -20 -20 -20 -20 -20 -20 -20 -20 -20 -20 -20 -20 -20 -20 -20 -20 -20 -20 -20 -20 -20 -20 -20 -20 -20 -20 -20 -20 -20 -20 -20 -20 -20 -20 -20 -20 -20 -20
-20 -20 -20 -20 -20 -20 -20 -20 -20 -20 -20 -20 -20 -20 -20 -20 -20 -20 -20 -20 -20 -20 -20 -20 -20 -20 -20 -20 -20 -20 -20 -20 -20 -20 -20 -20 -20 -20 -20 -20 -20 -20 -20 -20
-20 -20 -20 -20 -20 -20 -20 -20 -20 -20 -20 -20 -20 -20 -20 -20 -20 -20 -20 -20 -20 -20 -20 -20 -20 -20 -20 -20 -20 -20 -20 -20 -20 -20 -20 -20 -20 -20 -20 -20 -20 -20 -20 -20
-20 -20 -20 -20 -20 -20 -20 -20 -20 -20 -20 -20 -20 -20 -20 -20 -20 -20 -20 -20 -20 -20 -20 -20 -20 -20 -20 -20 -20 -20 -20 -20 -20 -20 -20 -20 -20 -20 -20 -20 -20 -20 -20 -20
-20 -20 -20 -20 -20 -20 -20 -20 -20 -20 -20 -20 -20 -20 -20 -20 -20 -20 -20 -20 -20 -20 -20 -20 -20 -20 -20 -20 -20 -20 -20 -20 -20 -20 -20 -20 -20 -20 -20 -20 -16 -15 -18 -13
-20 -20 -20 -20 -20 -20 -20 -20 -20 -20 -20 -20 -20 -20 -20 -20 -20 -20 -20 -20 -20 -20 -20 -20 -20 -20 -20 -20 -20 -20 -20 -20 -20 -20 -20 -20 -20 -20 -12 -3 -1 12 8 -11
-20 -20 -20 -20 -20 -20 -20 -20 -20 -20 -20 -20 -20 -20 -20 -20 -20 -20 -20 -20 -20 -20 -20 -20 -20 -20 -20 -20 -20 -20 -20 -20 -20 -20 -20 -20 -20 -10 -12 1 -13 0 11 -15
-17 -20 -20 -20 -20 -20 -20 -20 -20 -20 -20 -20 -20 -20 -20 -20 -20 -20 -20 -20 -20 -20 -20 -20 -20 -20 -20 -20 -20 -20 -20 -20 -20 -20 -20 -20 -20 -20 -19 -20 5 1 21 -10
-16 -20 -20 -20 -20 -20 -20 -20 -20 -20 -20 -20 -20 -20 -20 -20 -20 -20 -20 -20 -20 -20 -20 -20 -20 -20 -20 -20 -20 -20 -20 -20 -20 -20 -20 -20 -20 -20 -20 -18 16 19 26 27
-20 -20 -20 -20 -20 -20 -20 -20 -20 -20 -20 -20 -20 -20 -20 -20 -20 -20 -20 -20 -20 -20 -20 -20 -20 -20 -20 -20 -20 -20 -20 -20 -20 -20 -20 -20 -20 -16 -16 -9 11 20 31 25
-7 -20 -20 -20 -20 -20 -20 -20 -20 -20 -20 -20 -20 -20 -20 -20 -20 -20 -20 -20 -20 -20 -20 -20 -20 -20 -20 -20 -20 -20 -20 -20 -20 -20 -20 -20 -20 -20 -20 -14 5 19 26 11
7 -20 -20 -20 -20 -20 -20 -20 -20 -20 -20 -20 -20 -20 -20 -20 -20 -20 -20 -20 -20 -20 -20 -20 -20 -20 -20 -20 -20 -20 -20 -20 -20 -20 -20 -20 -20 -20 -17 -18 -15 -13 2 5
-6 -20 -20 -20 -20 -20 -20 -20 -20 -20 -20 -20 -20 -20 -20 -20 -20 -20 -20 -20 -20 -20 -20 -20 -20 -20 -20 -20 -20 -20 -20 -20 -20 -20 -20 -19 -20 -18 -17 -15 -18 -17 -9 -7
-10 -9 -20 -20 -20 -20 -20 -20 -20 -20 -20 -20 -20 -20 -20 -20 -20 -20 -20 -20 -20 -20 -20 -20 -20 -20 -20 -20 -20 -20 -20 -20 -20 -20 -20 -20 -19 -18 -19 -20 -20 -5 11 -5
-1 3 -20 -20 -20 -20 -20 -20 -20 -20 -20 -20 -20 -20 -20 -20 -20 -20 -20 -20 -20 -20 -20 -20 -20 -20 -20 -20 -20 -20 -20 -20 -20 -20 -20 -15 -18 -17 -20 -15 -10 10 -11 8
-20 -20 -20 -20 -20 -20 -20 -20 -20 -20 -20 -20 -20 -20 -20 -20 -20 -20 -20 -20 -20 -20 -20 -20 -20 -20 -20 -20 -20 -20 -20 -20 -20 -20 -20 -19 -16 -20 -17 -18 -11 -2 8 7
-20 -20 -20 -20 -20 -20 -20 -20 -20 -20 -20 -20 -20 -20 -20 -20 -20 -20 -20 -20 -20 -20 -20 -20 -20 -20 -20 -20 -20 -20 -20 -20 -20 -20 -20 -20 -20 -20 -20 -8 -11 -0 11 13
-20 -20 -20 -20 -20 -20 -20 -20 -20 -20 -20 -20 -20 -20 -20 -20 -20 -20 -20 -20 -20 -20 -20 -20 -20 -20 -20 -20 -20 -20 -20 -20 -20 -20 -20 -20 -20 -20 -20 -20 -17 -17 0 -4
-20 -20 -20 -20 -20 -20 -20 -20 -20 -20 -20 -20 -20 -20 -20 -20 -20 -20 -20 -20 -20 -20 -20 -20 -20 -20 -20 -20 -20 -20 -20 -20 -20 -20 -20 -20 -20 -20 -20 -20 -20 -20 -18 -4
-20 -20 -20 -20 -20 -20 -20 -20 -20 -20 -20 -20 -20 -20 -20 -20 -20 -20 -20 -20 -20 -20 -20 -20 -20 -20 -20 -20 -20 -20 -20 -20 -20 -20 -20 -20 -20 -20 -20 -20 -20 -20 -20 -20
-20 -20 -20 -20 -20 -20 -20 -20 -20 -20 -20 -20 -20 -20 -20 -20 -20 -20 -20 -20 -20 -20 -20 -20 -20 -20 -20 -20 -20 -20 -20 -20 -20 -20 -20 -20 -20 -20 -20 -20 -20 -20 -20 -20
-20 -20 -20 -20 -20 -20 -20 -20 -20 -20 -20 -20 -20 -20 -20 -20 -20 -20 -20 -20 -20 -20 -20 -20 -20 -20 -20 -20 -20 -20 -20 -20 -20 -20 -20 -20 -20 -20 -20 -20 -20 -20 -20 -20
Wind_Speed
3 5 2 4 3 4 6 3 2 5 3 6 5 11 21 9 7 7 5 2 4 5 1 4 5 5 5 2 5 7 10 10 5 7 9 9 9 9 8 6 8 10 9 8
5 1 3 5 5 5 4 2 4 5 1 1 7 21 14 6 5 3 6 6 5 1 5 5 6 5 6 7 8 7 11 12 9 8 9 8 9 9 10 10 11 12 13 13
5 2 4 2 2 3 3 3 2 1 7 3 8 9 6 2 1 2 2 4 3 3 7 8 10 9 9 8 7 11 13 14 11 13 9 8 9 9 9 8 8 7 9 12
3 3 4 1 1 3 1 4 3 3 4 4 4 7 6 4 5 4 5 6 3 4 5 5 8 11 11 10 7 7 12 14 12 12 11 12 11 13 10 11 10 11 12 14
3 6 4 2 2 3 2 2 3 2 1 4 2 4 10 3 7 9 9 8 4 4 5 8 9 10 10 7 6 7 12 13 13 12 11 10 13 11 11 11 14 13 12 13
3 1 1 2 3 2 4 4 5 4 2 4 3 4 9 5 7 3 4 7 2 7 7 7 8 8 9 6 10 11 12 13 13 13 14 14 16 15 13 13 13 11 10 10
1 2 1 2 3 1 3 5 5 7 6 6 4 1 14 6 6 4 7 6 5 7 7 8 9 12 12 13 14 13 13 15 14 14 15 15 16 17 18 16 12 14 11 11
6 4 5 3 1 4 2 5 8 6 3 5 3 8 9 5 1 5 6 4 6 7 6 7 8 10 8 13 14 13 14 15 15 15 17 15 16 11 12 15 13 12 12 12
6 2 2 4 2 2 3 1 2 9 2 4 3 8 12 6 7 6 7 3 8 8 7 8 8 7 11 13 14 14 15 15 15 18 16 16 15 15 15 18 17 13 15 13
5 5 1 2 1 5 2 5 4 4 1 5 6 7 8 5 3 6 8 6 9 7 8 8 7 8 10 13 13 13 13 14 16 17 15 14 15 16 15 15 18 18 15 15
4 4 1 2 6 7 2 1 4 4 3 6 2 9 9 8 5 8 9 8 7 8 8 7 7 7 11 11 12 13 13 14 15 15 15 15 15 15 15 15 15 14 14 14
4 5 4 3 0 1 2 5 5 6 5 1 3 13 4 7 7 7 8 8 8 6 7 7 7 7 10 11 12 13 13 13 15 15 15 15 15 14 14 15 14 13 14 13
5 1 3 4 2 3 4 5 4 5 3 7 7 11 2 3 5 7 8 9 8 6 7 5 5 5 8 11 12 12 13 13 15 15 16 15 14 14 14 14 13 12 11 12
4 2 6 7 4 5 6 6 7 6 5 5 12 11 21 14 8 8 8 9 9 7 7 4 4 9 9 10 11 12 13 12 14 16 15 14 14 14 13 13 12 11 8 8
3 4 2 3 4 2 3 5 12 11 8 9 13 11 20 9 9 9 7 5 5 8 5 2 6 8 12 10 11 11 11 12 14 14 14 13 13 12 12 11 11 10 8 6
1 2 2 5 1 5 6 10 13 18 7 14 14 23 26 22 9 6 10 6 8 8 6 3 5 7 10 10 10 12 11 11 12 13 13 13 12 12 12 12 11 11 11 10
5 5 3 6 3 4 7 12 18 6 6 10 10 19 2 7 5 6 9 8 10 7 6 5 4 5 7 9 8 11 12 11 10 11 12 12 12 11 12 12 12 13 13 12
5 5 2 4 2 3 6 2 7 11 7 17 9 13 9 8 6 10 9 8 8 7 7 5 3 5 5 4 7 8 9 9 9 10 11 12 12 11 12 12 13 13 12 15
1 4 2 3 4 8 10 4 8 9 11 22 24 18 12 2 3 9 6 9 9 7 6 5 4 4 4 5 6 6 7 7 8 10 11 11 10 10 11 13 13 11 12 14
5 5 4 3 4 7 7 3 4 4 7 7 17 15 7 5 1 7 4 5 6 7 4 5 4 2 2 5 4 5 6 6 7 9 9 10 9 9 10 11 12 11 9 12
4 2 6 2 3 11 11 5 5 6 8 5 10 7 8 7 8 4 1 2 5 5 7 3 3 4 4 4 3 5 5 5 6 6 7 8 9 7 9 9 10 10 11 12
10 10 5 4 2 13 8 6 9 5 2 2 4 5 7 8 4 4 5 6 8 9 6 6 5 5 4 3 2 4 5 5 5 5 5 6 7 7 7 9 9 10 11 13
6 9 10 12 13 3 8 6 7 2 3 3 3 5 7 7 8 8 7 8 10 8 7 5 6 5 3 4 3 5 4 4 5 4 5 5 6 7 8 9 9 7 9 8
5 5 4 3 7 19 16 14 10 6 10 6 8 6 6 9 9 9 7 8 9 8 9 6 6 6 6 5 4 5 4 3 3 4 5 5 5 5 6 5 5 6 6 6
4 11 6 8 8 12 14 12 13 11 11 10 9 9 13 10 13 10 7 9 10 9 7 8 9 8 8 6 6 4 3 1 1 2 3 4 3 4 4 3 3 3 2 3
6 9 8 9 10 6 5 4 4 8 9 11 9 7 9 11 14 7 9 8 9 9 7 8 10 8 8 7 7 5 5 4 3 1 1 2 2 2 2 2 3 11 11 11
Wind_Direction
17 69 212 143 111 106 108 103 283 270 324 357 266 274 284 282 256 268 267 302 129 158 230 341 337 312 307 311 337 336 335 327 312 316 312 302 298 299 289 279 271 269 265 252
33 148 140 126 99 102 90 99 272 277 339 336 303 290 277 263 244 210 168 151 162 31 328 290 317 325 335 334 326 323 322 315 312 312 304 293 292 287 288 284 276 270 268 264
146 147 146 126 124 107 132 166 196 229 334 235 295 291 341 32 95 83 152 151 146 11 337 331 340 326 320 314 324 331 324 313 312 310 301 297 294 288 285 280 275 266 265 261
116 145 135 117 167 127 189 145 81 335 6 280 18 278 302 295 286 227 200 199 176 346 324 319 321 314 321 310 316 313 315 309 305 308 301 295 289 289 285 286 282 277 265 260
197 154 146 168 256 160 155 78 74 74 114 17 342 63 272 343 268 240 222 219 220 310 318 311 306 297 301 288 292 301 306 304 301 297 288 288 285 282 287 284 282 278 274 267
99 46 102 121 81 70 142 91 52 48 46 18 264 108 277 208 217 228 200 203 257 324 310 277 278 288 301 309 319 312 308 305 305 301 297 289 284 285 281 279 282 278 272 265
76 149 107 125 108 16 89 71 342 352 8 221 359 308 247 259 244 227 206 186 297 286 290 298 308 323 323 328 324 317 315 307 307 302 296 291 284 280 277 276 271 268 266 262
154 296 162 154 174 191 156 152 154 214 241 278 331 237 253 219 275 240 157 171 270 297 293 291 309 314 313 320 314 314 310 305 305 304 301 295 288 281 278 271 267 264 258 254
138 173 86 46 71 75 203 124 136 101 54 40 251 286 288 245 253 181 215 308 314 297 307 314 313 310 324 318 313 313 310 306 308 309 305 294 289 282 277 275 268 261 257 252
188 95 34 146 100 51 138 142 78 0 95 297 284 277 246 293 275 233 244 255 300 315 317 308 317 326 324 313 310 309 308 309 308 310 303 296 292 287 282 275 271 259 252 246
138 105 79 87 200 177 133 358 46 111 119 170 280 262 217 224 232 237 232 241 286 295 297 304 310 313 312 307 315 313 315 316 313 312 307 302 300 298 293 286 289 259 250 241
184 129 161 194 16 192 169 180 157 123 229 158 140 270 195 226 247 226 229 259 278 270 287 302 304 312 311 316 317 316 316 319 317 315 308 308 306 307 299 295 289 284 253 236
191 278 71 350 12 2 220 185 121 115 89 198 138 262 170 243 220 235 241 271 288 288 298 287 289 304 316 318 317 318 319 322 318 315 320 313 315 315 309 305 303 295 274 250
101 113 182 190 167 128 190 181 170 135 130 183 230 282 283 277 261 257 260 267 278 270 265 267 327 335 322 317 317 318 319 326 321 326 322 320 324 324 321 315 315 313 304 272
136 209 185 246 220 195 218 180 177 203 189 187 268 222 260 265 267 271 249 256 267 273 285 343 334 331 327 322 326 320 317 328 329 325 324 323 327 328 330 333 330 330 335 337
81 224 141 291 298 183 257 214 197 218 219 260 265 284 271 272 277 268 268 278 273 282 286 315 314 323 324 321 324 319 317 327 332 330 325 328 334 340 341 339 347 2 4 6
156 142 119 263 358 313 284 225 196 185 192 193 198 235 344 278 250 252 260 230 248 246 247 280 276 317 316 316 318 314 314 316 327 332 332 336 339 344 349 354 0 13 19 21
147 121 84 239 6 283 242 179 175 194 219 213 262 254 231 238 252 251 228 222 242 217 231 244 260 306 284 294 313 311 313 316 329 341 343 342 347 350 358 6 13 12 27 34
70 126 99 163 202 305 296 178 152 170 276 207 221 248 259 225 279 282 223 210 219 199 210 213 210 225 282 299 304 312 322 321 331 351 351 343 348 355 4 14 13 16 29 39
99 69 120 90 160 228 240 158 175 169 292 190 192 230 211 155 276 257 234 185 200 204 185 217 224 230 295 290 314 320 323 322 353 341 346 342 342 4 10 17 16 21 29 43
130 39 172 154 245 286 249 144 160 95 239 154 183 205 160 197 209 228 201 179 179 199 206 197 201 229 239 285 307 323 315 343 317 320 324 353 346 1 12 20 21 21 36 43
163 151 180 90 93 269 140 77 185 223 310 155 196 204 207 239 258 235 209 187 207 215 201 208 216 235 246 251 281 301 315 305 315 333 350 351 349 5 6 21 27 31 38 47
206 184 176 190 208 242 212 220 228 231 255 283 207 205 214 242 244 216 216 207 213 217 207 192 201 218 231 222 237 277 273 323 335 3 6 4 1 20 20 27 26 35 36 43
230 174 196 122 232 235 238 256 256 230 240 242 240 237 200 239 244 244 215 207 205 209 205 180 181 209 228 200 218 240 284 326 4 15 8 6 24 14 27 38 35 44 38 41
187 140 173 263 285 280 263 229 239 243 242 250 251 232 238 235 253 230 224 207 207 204 191 176 192 208 216 194 214 217 242 125 11 18 355 18 21 14 11 22 65 69 112 95
193 175 179 222 217 204 237 213 195 215 239 247 235 261 239 220 243 219 233 214 196 197 175 184 197 209 208 197 210 204 198 175 171 239 344 351 354 349 13 47 26 64 75 74